Location: Treviso
(45.6669°N, 12.2430°E)
Time: 08:14:04
(UTC+02:00)

ISS - Pass Details

Date: 16 May 2026
Orbit: 414 x 424 km, 51.6° (Epoch: 18 May)

Event Time Altitude Azimuth Distance (km) Brightness Sun altitude
Rises 00:58:58 0° 297° (WNW) 2,356 0.4 -25.3°
Reaches altitude 10° 01:01:05 10° 293° (WNW) 1,491 -0.7 -25.3°
Enters shadow 01:01:11 11° 293° (WNW) 1,449 -0.8 -25.3°
